Location: Kalberh�ni
(46.4610°N, 7.2453°E)
Time: 00:24:51
(UTC+00:00)

Cosmos 968 Rocket - Pass Details

Date: 20 June 2021
Orbit: 741 x 770 km, 74.0° (Epoch: 25 July)

Event Time Altitude Azimuth Distance (km) Brightness Sun altitude
Rises 21:22:47 0° 337° (NNW) 3,190 8.6 -14.2°
Reaches altitude 10° 21:25:08 10° 337° (NNW) 2,264 7.3 -14.4°
Maximum altitude 21:30:16 86° 250° (WSW) 753 3.4 -14.8°
Enters shadow 21:33:29 23° 162° (SSE) 1,535 4.5 -15.1°
